Weather History for KIAB - October, 2012

Change the Weather History Date:

Thursday, October 11, 2012

  Actual Average Record
Temperature  
Mean Temperature 66 °F -  
Max Temperature 78 °F 70 °F 82 °F (2013)
Min Temperature 54 °F 48 °F 39 °F (2006)
Cooling Degree Days 1    
Growing Degree Days 16 (Base 50)    
Moisture  
Dew Point 48 °F    
Average Humidity 57    
Maximum Humidity 92    
Minimum Humidity 42    
Precipitation  
Precipitation 0.00 in - - ()
Sea Level Pressure  
Sea Level Pressure 30.04 in    
Wind  
Wind Speed 10 mph (SSE)    
Max Wind Speed 22 mph    
Max Gust Speed 28 mph    
Visibility 10 miles    
Events      
Averages and records for this station are not official NWS values.
T = Trace of Precipitation, MM = Missing Value Source: NWS Daily Summary

Daily Weather History Graph

Daily Weather History Graph

Search for Another Location

Airport or City:

Trip Planner

Search our weather history database for the weather conditions in past years. The results will help you decide how hot, cold, wet, or windy it might be!

Date:

Astronomy

Oct. 11, 2012 Rise Set
Actual Time 7:34 AM CDT 6:56 PM CDT
Civil Twilight 7:07 AM CDT 7:22 PM CDT
Nautical Twilight 6:37 AM CDT 7:53 PM CDT
Astronomical Twilight 6:07 AM CDT 8:23 PM CDT
Moon 3:18 AM CDT (10/11) 4:30 PM CDT (10/11)
Length of Visible Light 12h 15m
Length of Day
11h 22m
Waning Crescent, 18% of the Moon is Illuminated
Oct 11
Waning Crescent
Oct 15
New
Oct 21
First Quarter
Oct 29
Full
Nov 6
Last Quarter

Hourly Weather History & Observations

Time (CDT) Temp. Dew Point Humidity Pressure Visibility Wind Dir Wind Speed Gust Speed Precip Events Conditions
12:55 AM 54.0 °F 32.0 °F 43% 30.11 in 10.0 mi SE 9.2 mph - N/A   Overcast
1:55 AM 56.1 °F 33.1 °F 42% 30.09 in 10.0 mi SE 12.7 mph - N/A   Overcast
2:55 AM 55.0 °F 34.2 °F 45% 30.08 in 10.0 mi SSE 6.9 mph - N/A   Overcast
3:07 AM 55.4 °F 33.8 °F 44% 30.08 in 10.0 mi SSE 5.8 mph - N/A   Overcast
3:31 AM 55.4 °F 33.8 °F 44% 30.09 in 10.0 mi SSE 4.6 mph - N/A   Overcast
3:55 AM 55.4 °F 34.7 °F 46% 30.08 in 10.0 mi SE 5.8 mph - N/A   Overcast
4:55 AM 55.9 °F 35.6 °F 46% 30.06 in 10.0 mi SE 8.1 mph - N/A   Overcast
5:55 AM 57.0 °F 36.7 °F 47% 30.06 in 10.0 mi SE 9.2 mph - N/A   Overcast
6:16 AM 55.4 °F 37.4 °F 51% 30.06 in 10.0 mi SE 11.5 mph - N/A   Mostly Cloudy
6:55 AM 56.5 °F 37.8 °F 50% 30.06 in 10.0 mi SE 8.1 mph - N/A   Mostly Cloudy
7:14 AM 57.2 °F 39.2 °F 51% 30.07 in 10.0 mi SSE 8.1 mph - N/A   Overcast
7:17 AM 57.2 °F 39.2 °F 51% 30.07 in 10.0 mi SSE 9.2 mph - N/A   Overcast
7:26 AM 57.2 °F 39.2 °F 51% 30.07 in 10.0 mi SSE 8.1 mph - N/A   Overcast
7:55 AM 57.7 °F 39.6 °F 51% 30.08 in 10.0 mi SSE 8.1 mph - N/A   Overcast
8:25 AM 57.2 °F 41.0 °F 55% 30.08 in 10.0 mi SSE 9.2 mph - N/A   Scattered Clouds
8:55 AM 58.6 °F 42.1 °F 54% 30.08 in 10.0 mi SSE 10.4 mph - N/A   Clear
9:55 AM 62.8 °F 48.2 °F 59% 30.07 in 10.0 mi South 16.1 mph - N/A   Clear
10:55 AM 66.6 °F 53.1 °F 62% 30.06 in 10.0 mi South 19.6 mph 25.3 mph N/A   Scattered Clouds
11:55 AM 71.8 °F 56.7 °F 59% 30.03 in 10.0 mi South 17.3 mph 23.0 mph N/A   Clear
12:55 PM 74.3 °F 60.3 °F 61% 30.00 in 10.0 mi South 20.7 mph 27.6 mph N/A   Mostly Cloudy
1:55 PM 76.1 °F 61.7 °F 61% 29.97 in 10.0 mi South 21.9 mph 27.6 mph N/A   Mostly Cloudy
2:55 PM 78.6 °F 61.5 °F 56% 29.96 in 10.0 mi SSW 17.3 mph - N/A   Mostly Cloudy
3:55 PM 76.6 °F 62.2 °F 61% 29.96 in 10.0 mi SSE 19.6 mph - N/A   Scattered Clouds
4:55 PM 76.8 °F 62.6 °F 61% 29.96 in 10.0 mi South 15.0 mph - N/A   Mostly Cloudy
5:55 PM 77.2 °F 63.0 °F 61% 29.96 in 10.0 mi SSE 11.5 mph - N/A   Mostly Cloudy
6:55 PM 75.0 °F 63.1 °F 66% 29.98 in 10.0 mi SSE 10.4 mph - N/A   Clear
7:55 PM 72.7 °F 63.3 °F 72% 30.00 in 10.0 mi SE 6.9 mph - N/A   Clear
8:55 PM 71.2 °F 64.2 °F 78% 30.02 in 10.0 mi East 8.1 mph - N/A   Mostly Cloudy
9:55 PM 70.7 °F 65.3 °F 83% 30.05 in 10.0 mi ESE 9.2 mph - N/A   Mostly Cloudy
10:55 PM 69.1 °F 66.7 °F 92% 30.06 in 10.0 mi SE 9.2 mph - N/A   Scattered Clouds